| time (UTC) | temp F | wind direction | speed MPH | gust MPH | rain 1hr in | rain 24hr in | rain mn in | humidity % | barometer mb |
| 20260510104449 | 53 | 216 | 1.0 | 3.0 | 0.00 | 0.13 | 0.00 | 91 | 1009.5 |
| 20260510104217 | 53 | 216 | 2.0 | 5.0 | 0.00 | 0.14 | 0.00 | 91 | 1009.3 |
| 20260510103449 | 53 | 216 | 3.0 | 5.0 | 0.00 | 0.14 | 0.00 | 91 | 1009.2 |
| 20260510103212 | 53 | 216 | 2.0 | 5.0 | 0.00 | 0.14 | 0.00 | 91 | 1009.4 |
| 20260510102449 | 53 | 216 | 4.0 | 5.0 | 0.00 | 0.14 | 0.00 | 91 | 1009.3 |
| 20260510101949 | 53 | 217 | 4.0 | 5.0 | 0.00 | 0.14 | 0.00 | 91 | 1009.2 |
| 20260510101450 | 53 | 217 | 2.0 | 4.0 | 0.00 | 0.15 | 0.00 | 91 | 1009.1 |
| 20260510100949 | 53 | 217 | 3.0 | 5.0 | 0.00 | 0.15 | 0.00 | 90 | 1009.1 |
| 20260510100710 | 53 | 217 | 3.0 | 5.0 | 0.00 | 0.15 | 0.00 | 90 | 1008.9 |
| 20260510095949 | 53 | 217 | 2.0 | 4.0 | 0.00 | 0.15 | 0.00 | 89 | 1008.7 |
| 20260510095449 | 53 | 217 | 3.0 | 4.0 | 0.00 | 0.15 | 0.00 | 90 | 1008.7 |
| 20260510094948 | 53 | 217 | 3.0 | 5.0 | 0.00 | 0.15 | 0.00 | 89 | 1008.3 |
| 20260510094449 | 54 | 217 | 3.0 | 5.0 | 0.00 | 0.16 | 0.00 | 89 | 1008.6 |
| 20260510093949 | 54 | 219 | 2.0 | 4.0 | 0.00 | 0.16 | 0.00 | 89 | 1008.2 |
| 20260510093711 | 54 | 219 | 3.0 | 4.0 | 0.00 | 0.16 | 0.00 | 89 | 1008.3 |
| 20260510092949 | 54 | 219 | 2.0 | 4.0 | 0.00 | 0.16 | 0.00 | 88 | 1008.2 |
| 20260510091948 | 55 | 219 | 3.0 | 5.0 | 0.00 | 0.17 | 0.00 | 87 | 1008.2 |
| 20260510091448 | 55 | 221 | 3.0 | 5.0 | 0.00 | 0.17 | 0.00 | 87 | 1008.0 |
| 20260510090947 | 55 | 223 | 3.0 | 4.0 | 0.00 | 0.18 | 0.00 | 87 | 1007.9 |
| 20260510090448 | 55 | 227 | 1.0 | 3.0 | 0.00 | 0.18 | 0.00 | 86 | 1008.0 |
| 20260510085948 | 55 | 227 | 2.0 | 3.0 | 0.00 | 0.18 | 0.00 | 86 | 1008.1 |
| 20260510085448 | 56 | 227 | 2.0 | 4.0 | 0.00 | 0.19 | 0.00 | 86 | 1008.0 |
| 20260510084949 | 56 | 227 | 2.0 | 4.0 | 0.00 | 0.19 | 0.00 | 85 | 1008.0 |
| 20260510084448 | 56 | 227 | 2.0 | 5.0 | 0.00 | 0.19 | 0.00 | 85 | 1007.9 |
| 20260510083948 | 56 | 227 | 3.0 | 5.0 | 0.00 | 0.19 | 0.00 | 85 | 1008.0 |
| 20260510083447 | 56 | 227 | 4.0 | 5.0 | 0.00 | 0.20 | 0.00 | 85 | 1008.0 |
| 20260510082948 | 56 | 230 | 3.0 | 5.0 | 0.00 | 0.20 | 0.00 | 84 | 1008.1 |
| 20260510082706 | 57 | 233 | 3.0 | 5.0 | 0.00 | 0.20 | 0.00 | 84 | 1008.1 |
| 20260510082213 | 57 | 233 | 3.0 | 4.0 | 0.00 | 0.20 | 0.00 | 84 | 1008.0 |
| 20260510081447 | 57 | 233 | 2.0 | 3.0 | 0.00 | 0.20 | 0.00 | 83 | 1008.1 |
| 20260510080947 | 57 | 233 | 2.0 | 5.0 | 0.00 | 0.21 | 0.00 | 83 | 1008.2 |
| 20260510080447 | 57 | 233 | 3.0 | 5.0 | 0.00 | 0.21 | 0.00 | 83 | 1008.1 |
| 20260510075947 | 57 | 251 | 3.0 | 5.0 | 0.00 | 0.21 | 0.00 | 83 | 1008.1 |
| 20260510075447 | 58 | 230 | 3.0 | 5.0 | 0.00 | 0.21 | 0.00 | 83 | 1008.0 |
| 20260510074947 | 58 | 230 | 3.0 | 5.0 | 0.00 | 0.22 | 0.00 | 82 | 1007.9 |
| 20260510074445 | 58 | 227 | 3.0 | 6.0 | 0.00 | 0.22 | 0.00 | 82 | 1007.9 |
| 20260510073946 | 58 | 233 | 4.0 | 11.0 | 0.00 | 0.22 | 0.00 | 82 | 1007.9 |
| 20260510073447 | 58 | 234 | 5.0 | 11.0 | 0.00 | 0.22 | 0.00 | 82 | 1007.8 |
| 20260510072947 | 58 | 231 | 6.0 | 11.0 | 0.00 | 0.22 | 0.00 | 82 | 1007.8 |
| 20260510072446 | 58 | 237 | 6.0 | 11.0 | 0.00 | 0.22 | 0.00 | 82 | 1007.7 |
| 20260510071946 | 58 | 216 | 6.0 | 10.0 | 0.00 | 0.22 | 0.00 | 82 | 1007.7 |
| 20260510071447 | 58 | 221 | 5.0 | 9.0 | 0.00 | 0.23 | 0.00 | 83 | 1007.8 |
| 20260510070946 | 58 | 224 | 6.0 | 10.0 | 0.00 | 0.23 | 0.00 | 83 | 1007.8 |
| 20260510070446 | 58 | 234 | 4.0 | 10.0 | 0.00 | 0.23 | 0.00 | 82 | 1007.8 |
| 20260510065947 | 58 | 230 | 5.0 | 10.0 | 0.00 | 0.23 | 0.00 | 82 | 1007.8 |
| 20260510065446 | 58 | 235 | 7.0 | 11.0 | 0.00 | 0.23 | 0.00 | 82 | 1007.8 |
| 20260510064945 | 58 | 226 | 8.0 | 12.0 | 0.00 | 0.23 | 0.00 | 82 | 1007.6 |
| 20260510064446 | 58 | 231 | 7.0 | 12.0 | 0.00 | 0.23 | 0.00 | 83 | 1007.6 |
| 20260510063946 | 58 | 235 | 6.0 | 9.0 | 0.00 | 0.23 | 0.00 | 82 | 1007.6 |
| 20260510063447 | 58 | 206 | 5.0 | 10.0 | 0.00 | 0.23 | 0.00 | 82 | 1007.7 |
| 20260510062945 | 58 | 228 | 6.0 | 10.0 | 0.00 | 0.23 | 0.00 | 82 | 1007.7 |
| 20260510062446 | 58 | 217 | 6.0 | 10.0 | 0.00 | 0.23 | 0.00 | 82 | 1007.8 |
| 20260510062205 | 58 | 230 | 5.0 | 10.0 | 0.00 | 0.23 | 0.00 | 81 | 1007.8 |
| 20260510061445 | 58 | 231 | 6.0 | 10.0 | 0.00 | 0.23 | 0.00 | 81 | 1007.8 |
| 20260510060945 | 58 | 230 | 4.0 | 9.0 | 0.00 | 0.23 | 0.00 | 81 | 1007.7 |
| 20260510060445 | 58 | 213 | 5.0 | 9.0 | 0.00 | 0.23 | 0.00 | 81 | 1007.7 |
| 20260510060211 | 58 | 231 | 5.0 | 10.0 | 0.00 | 0.23 | 0.00 | 81 | 1007.7 |
| 20260510055705 | 59 | 231 | 6.0 | 11.0 | 0.00 | 0.23 | 0.00 | 81 | 1007.7 |
| 20260510054945 | 59 | 244 | 8.0 | 11.0 | 0.00 | 0.23 | 0.00 | 81 | 1007.7 |
| 20260510054445 | 59 | 216 | 7.0 | 13.0 | 0.00 | 0.23 | 0.00 | 80 | 1007.7 |
| 20260510053944 | 59 | 240 | 8.0 | 13.0 | 0.00 | 0.23 | 0.00 | 80 | 1007.7 |
| 20260510053444 | 59 | 247 | 7.0 | 10.0 | 0.00 | 0.23 | 0.00 | 80 | 1007.7 |
| 20260510052945 | 59 | 243 | 6.0 | 14.0 | 0.00 | 0.23 | 0.00 | 80 | 1007.8 |
| 20260510052445 | 59 | 216 | 8.0 | 14.0 | 0.00 | 0.23 | 0.00 | 80 | 1007.7 |
| 20260510051944 | 59 | 235 | 7.0 | 12.0 | 0.00 | 0.23 | 0.00 | 80 | 1007.7 |
| 20260510051445 | 59 | 224 | 7.0 | 12.0 | 0.00 | 0.23 | 0.00 | 80 | 1007.8 |
| 20260510051213 | 59 | 210 | 7.0 | 15.0 | 0.00 | 0.23 | 0.00 | 80 | 1007.8 |
| 20260510050444 | 59 | 244 | 8.0 | 15.0 | 0.00 | 0.23 | 0.00 | 79 | 1007.7 |
| 20260510045944 | 59 | 228 | 8.0 | 13.0 | 0.00 | 0.23 | 0.00 | 79 | 1007.6 |
| 20260510045444 | 59 | 216 | 7.0 | 17.0 | 0.00 | 0.23 | 0.00 | 79 | 1007.6 |
| 20260510044945 | 59 | 234 | 10.0 | 17.0 | 0.00 | 0.23 | 0.00 | 79 | 1007.6 |
| 20260510044703 | 59 | 231 | 9.0 | 14.0 | 0.00 | 0.23 | 0.00 | 79 | 1007.6 |
| 20260510043944 | 59 | 230 | 8.0 | 11.0 | 0.00 | 0.23 | 0.00 | 79 | 1007.6 |
| 20260510043443 | 59 | 213 | 6.0 | 13.0 | 0.00 | 0.23 | 0.00 | 79 | 1007.6 |
| 20260510042943 | 59 | 244 | 9.0 | 13.0 | 0.00 | 0.23 | 0.00 | 79 | 1007.6 |
| 20260510042444 | 59 | 212 | 7.0 | 14.0 | 0.00 | 0.23 | 0.00 | 79 | 1007.5 |
| 20260510041943 | 59 | 209 | 9.0 | 14.0 | 0.00 | 0.23 | 0.00 | 79 | 1007.5 |
| 20260510041443 | 59 | 241 | 7.0 | 14.0 | 0.00 | 0.23 | 0.00 | 79 | 1007.5 |
| 20260510040943 | 59 | 217 | 9.0 | 12.0 | 0.00 | 0.23 | 0.00 | 79 | 1007.6 |
| 20260510040443 | 59 | 223 | 7.0 | 11.0 | 0.00 | 0.23 | 0.00 | 79 | 1007.5 |
| 20260510035943 | 59 | 227 | 7.0 | 11.0 | 0.00 | 0.23 | 0.23 | 79 | 1007.4 |
| 20260510035443 | 59 | 226 | 5.0 | 12.0 | 0.00 | 0.23 | 0.23 | 79 | 1007.5 |
| 20260510034942 | 59 | 212 | 7.0 | 12.0 | 0.00 | 0.23 | 0.23 | 79 | 1007.5 |
| 20260510034442 | 59 | 213 | 5.0 | 10.0 | 0.00 | 0.23 | 0.23 | 79 | 1007.4 |
| 20260510033943 | 59 | 220 | 6.0 | 11.0 | 0.00 | 0.23 | 0.23 | 79 | 1007.4 |
| 20260510033443 | 59 | 212 | 6.0 | 11.0 | 0.00 | 0.23 | 0.23 | 78 | 1007.4 |
| 20260510032943 | 59 | 214 | 5.0 | 9.0 | 0.00 | 0.23 | 0.23 | 78 | 1007.4 |
| 20260510032442 | 59 | 213 | 6.0 | 9.0 | 0.00 | 0.23 | 0.23 | 78 | 1007.4 |
| 20260510031942 | 59 | 219 | 5.0 | 10.0 | 0.00 | 0.23 | 0.23 | 78 | 1007.3 |
| 20260510031700 | 59 | 226 | 6.0 | 10.0 | 0.00 | 0.23 | 0.23 | 77 | 1007.2 |
| 20260510030942 | 59 | 209 | 4.0 | 7.0 | 0.00 | 0.23 | 0.23 | 77 | 1007.2 |
| 20260510030442 | 60 | 210 | 6.0 | 9.0 | 0.00 | 0.23 | 0.23 | 76 | 1007.2 |
| 20260510025942 | 60 | 216 | 6.0 | 10.0 | 0.00 | 0.23 | 0.23 | 76 | 1007.3 |
| 20260510025710 | 60 | 209 | 6.0 | 10.0 | 0.00 | 0.23 | 0.23 | 76 | 1007.2 |
| 20260510024941 | 60 | 210 | 5.0 | 13.0 | 0.00 | 0.23 | 0.23 | 76 | 1007.1 |
| 20260510024442 | 60 | 217 | 5.0 | 13.0 | 0.00 | 0.23 | 0.23 | 75 | 1007.1 |
| 20260510023942 | 60 | 217 | 6.0 | 10.0 | 0.00 | 0.23 | 0.23 | 76 | 1007.2 |
| 20260510023442 | 60 | 212 | 7.0 | 10.0 | 0.00 | 0.23 | 0.23 | 76 | 1007.1 |
| 20260510022941 | 60 | 212 | 6.0 | 10.0 | 0.00 | 0.23 | 0.23 | 75 | 1007.1 |
| 20260510022441 | 60 | 219 | 6.0 | 12.0 | 0.00 | 0.23 | 0.23 | 75 | 1006.9 |
| 20260510021942 | 60 | 216 | 6.0 | 12.0 | 0.00 | 0.23 | 0.23 | 75 | 1006.7 |
| 20260510021441 | 60 | 196 | 6.0 | 13.0 | 0.00 | 0.23 | 0.23 | 75 | 1006.6 |
| 20260510020941 | 60 | 224 | 8.0 | 13.0 | 0.00 | 0.23 | 0.23 | 75 | 1006.6 |
| 20260510020710 | 59 | 210 | 6.0 | 12.0 | 0.00 | 0.23 | 0.23 | 75 | 1006.6 |
| 20260510015941 | 59 | 216 | 7.0 | 12.0 | 0.00 | 0.23 | 0.23 | 75 | 1006.5 |
| 20260510015441 | 60 | 213 | 8.0 | 11.0 | 0.00 | 0.23 | 0.23 | 75 | 1006.4 |
| 20260510014941 | 60 | 204 | 7.0 | 10.0 | 0.00 | 0.23 | 0.23 | 74 | 1006.4 |
| 20260510014440 | 60 | 202 | 6.0 | 7.0 | 0.00 | 0.23 | 0.23 | 74 | 1006.5 |
| 20260510013941 | 60 | 210 | 4.0 | 6.0 | 0.00 | 0.23 | 0.23 | 73 | 1006.4 |
| 20260510013442 | 60 | 216 | 4.0 | 6.0 | 0.00 | 0.23 | 0.23 | 73 | 1006.4 |
| 20260510012940 | 60 | 204 | 4.0 | 5.0 | 0.00 | 0.23 | 0.23 | 73 | 1006.4 |
| 20260510012440 | 60 | 206 | 3.0 | 5.0 | 0.00 | 0.23 | 0.23 | 72 | 1006.3 |
| 20260510011939 | 60 | 206 | 3.0 | 5.0 | 0.00 | 0.23 | 0.23 | 71 | 1006.3 |
| 20260510011440 | 60 | 206 | 3.0 | 7.0 | 0.00 | 0.23 | 0.23 | 71 | 1006.2 |
| 20260510011159 | 61 | 204 | 4.0 | 7.0 | 0.00 | 0.23 | 0.23 | 71 | 1006.1 |
| 20260510005941 | 61 | 203 | 5.0 | 7.0 | 0.00 | 0.23 | 0.23 | 70 | 1006.0 |
| 20260510005440 | 61 | 206 | 5.0 | 6.0 | 0.00 | 0.23 | 0.23 | 70 | 1005.9 |
| 20260510004939 | 61 | 203 | 4.0 | 6.0 | 0.00 | 0.23 | 0.23 | 69 | 1006.0 |
| 20260510004657 | 62 | 209 | 4.0 | 6.0 | 0.00 | 0.23 | 0.23 | 69 | 1005.9 |
| 20260510004159 | 62 | 214 | 3.0 | 7.0 | 0.00 | 0.23 | 0.23 | 69 | 1005.7 |
| 20260510003440 | 62 | 214 | 4.0 | 7.0 | 0.00 | 0.23 | 0.23 | 68 | 1005.7 |
| 20260510002439 | 63 | 206 | 6.0 | 7.0 | 0.00 | 0.23 | 0.23 | 67 | 1005.5 |
| 20260510001939 | 63 | 216 | 5.0 | 10.0 | 0.00 | 0.23 | 0.23 | 66 | 1005.6 |
| 20260510001439 | 63 | 210 | 6.0 | 10.0 | 0.00 | 0.23 | 0.23 | 66 | 1005.6 |
| 20260510001202 | 64 | 209 | 6.0 | 10.0 | 0.00 | 0.23 | 0.23 | 65 | 1005.6 |
| 20260510000440 | 64 | 217 | 4.0 | 9.0 | 0.00 | 0.23 | 0.23 | 65 | 1005.6 |
| 20260509235938 | 64 | 221 | 6.0 | 9.0 | 0.00 | 0.23 | 0.23 | 64 | 1005.6 |
| 20260509235437 | 64 | 220 | 4.0 | 12.0 | 0.00 | 0.23 | 0.23 | 64 | 1005.5 |
| 20260509234938 | 65 | 220 | 5.0 | 14.0 | 0.00 | 0.23 | 0.23 | 64 | 1005.5 |
| 20260509234438 | 65 | 235 | 8.0 | 14.0 | 0.00 | 0.23 | 0.23 | 63 | 1005.4 |
| 20260509233938 | 65 | 217 | 6.0 | 10.0 | 0.00 | 0.23 | 0.23 | 63 | 1005.3 |
| 20260509233439 | 65 | 199 | 6.0 | 13.0 | 0.00 | 0.23 | 0.23 | 63 | 1005.3 |
| 20260509232938 | 65 | 221 | 7.0 | 13.0 | 0.00 | 0.23 | 0.23 | 61 | 1005.2 |
| 20260509232438 | 65 | 200 | 7.0 | 13.0 | 0.00 | 0.23 | 0.23 | 61 | 1005.3 |
| 20260509231939 | 66 | 204 | 7.0 | 19.0 | 0.00 | 0.23 | 0.23 | 61 | 1005.2 |
| 20260509231436 | 66 | 233 | 12.0 | 19.0 | 0.00 | 0.23 | 0.23 | 60 | 1005.2 |
| 20260509231200 | 66 | 214 | 10.0 | 16.0 | 0.00 | 0.23 | 0.23 | 60 | 1005.1 |
| 20260509230437 | 66 | 213 | 10.0 | 16.0 | 0.00 | 0.23 | 0.23 | 59 | 1005.1 |
| 20260509230157 | 66 | 219 | 10.0 | 17.0 | 0.00 | 0.23 | 0.23 | 60 | 1005.2 |
| 20260509225438 | 66 | 178 | 11.0 | 17.0 | 0.00 | 0.23 | 0.23 | 59 | 1005.1 |
| 20260509224937 | 66 | 204 | 8.0 | 16.0 | 0.00 | 0.23 | 0.23 | 60 | 1005.2 |
| 20260509224437 | 66 | 190 | 10.0 | 15.0 | 0.00 | 0.23 | 0.23 | 59 | 1005.2 |
| 20260509223938 | 67 | 213 | 10.0 | 15.0 | 0.00 | 0.23 | 0.23 | 59 | 1005.3 |
| 20260509223437 | 66 | 226 | 9.0 | 16.0 | 0.00 | 0.23 | 0.23 | 58 | 1005.2 |
| 20260509222937 | 67 | 237 | 9.0 | 16.0 | 0.00 | 0.23 | 0.23 | 59 | 1005.3 |
| 20260509222438 | 66 | 240 | 10.0 | 18.0 | 0.00 | 0.23 | 0.23 | 58 | 1005.3 |
| 20260509221937 | 66 | 252 | 12.0 | 18.0 | 0.00 | 0.23 | 0.23 | 58 | 1005.4 |
| 20260509221659 | 67 | 238 | 12.0 | 18.0 | 0.00 | 0.23 | 0.23 | 58 | 1005.5 |
| 20260509220937 | 66 | 206 | 11.0 | 18.0 | 0.00 | 0.23 | 0.23 | 58 | 1005.4 |
| 20260509220659 | 67 | 234 | 10.0 | 16.0 | 0.00 | 0.23 | 0.23 | 59 | 1005.5 |
| 20260509215937 | 67 | 217 | 10.0 | 17.0 | 0.00 | 0.23 | 0.23 | 59 | 1005.5 |
| 20260509215700 | 67 | 238 | 11.0 | 17.0 | 0.00 | 0.23 | 0.23 | 58 | 1005.5 |
| 20260509214937 | 67 | 257 | 10.0 | 15.0 | 0.00 | 0.23 | 0.23 | 57 | 1005.5 |
| 20260509214436 | 66 | 238 | 8.0 | 14.0 | 0.00 | 0.23 | 0.23 | 58 | 1005.5 |
| 20260509213936 | 66 | 237 | 9.0 | 19.0 | 0.00 | 0.23 | 0.23 | 58 | 1005.5 |
| 20260509213437 | 66 | 243 | 12.0 | 19.0 | 0.00 | 0.23 | 0.23 | 57 | 1005.5 |
| 20260509212936 | 66 | 243 | 8.0 | 14.0 | 0.00 | 0.23 | 0.23 | 57 | 1005.5 |
| 20260509212436 | 66 | 212 | 9.0 | 15.0 | 0.00 | 0.23 | 0.23 | 60 | 1005.4 |
| 20260509211936 | 66 | 195 | 6.0 | 15.0 | 0.00 | 0.23 | 0.23 | 59 | 1005.5 |
| 20260509211437 | 66 | 244 | 9.0 | 20.0 | 0.00 | 0.23 | 0.23 | 59 | 1005.6 |
| 20260509210936 | 66 | 237 | 9.0 | 20.0 | 0.00 | 0.23 | 0.23 | 61 | 1005.6 |
| 20260509210701 | 66 | 200 | 10.0 | 15.0 | 0.00 | 0.23 | 0.23 | 59 | 1005.6 |
| 20260509205936 | 67 | 237 | 8.0 | 15.0 | 0.00 | 0.23 | 0.23 | 59 | 1005.7 |
| 20260509205437 | 66 | 241 | 6.0 | 10.0 | 0.00 | 0.23 | 0.23 | 59 | 1005.7 |
| 20260509204936 | 65 | 285 | 6.0 | 14.0 | 0.00 | 0.23 | 0.23 | 60 | 1005.6 |
| 20260509204435 | 66 | 240 | 10.0 | 14.0 | 0.00 | 0.23 | 0.23 | 60 | 1005.7 |
| 20260509203935 | 65 | 183 | 7.0 | 15.0 | 0.00 | 0.23 | 0.23 | 61 | 1005.7 |
| 20260509203436 | 65 | 234 | 8.0 | 15.0 | 0.00 | 0.23 | 0.23 | 60 | 1005.7 |
| 20260509202935 | 65 | 233 | 6.0 | 17.0 | 0.00 | 0.23 | 0.23 | 60 | 1005.9 |
| 20260509202435 | 66 | 228 | 11.0 | 17.0 | 0.00 | 0.23 | 0.23 | 62 | 1005.9 |
| 20260509201935 | 66 | 266 | 6.0 | 15.0 | 0.00 | 0.23 | 0.23 | 63 | 1006.0 |
| 20260509201435 | 66 | 251 | 8.0 | 15.0 | 0.00 | 0.23 | 0.23 | 61 | 1006.1 |
| 20260509200935 | 66 | 223 | 10.0 | 14.0 | 0.00 | 0.23 | 0.23 | 61 | 1006.1 |
| 20260509200434 | 65 | 240 | 8.0 | 15.0 | 0.00 | 0.23 | 0.23 | 64 | 1006.2 |
| 20260509195935 | 65 | 230 | 7.0 | 16.0 | 0.00 | 0.23 | 0.23 | 65 | 1006.2 |
| 20260509195434 | 65 | 235 | 9.0 | 16.0 | 0.00 | 0.23 | 0.23 | 65 | 1006.5 |
| 20260509194934 | 66 | 238 | 12.0 | 15.0 | 0.00 | 0.23 | 0.23 | 63 | 1006.3 |
| 20260509194434 | 65 | 235 | 8.0 | 15.0 | 0.00 | 0.23 | 0.23 | 64 | 1006.4 |
| 20260509193934 | 65 | 275 | 5.0 | 16.0 | 0.00 | 0.23 | 0.23 | 64 | 1006.2 |
| 20260509193435 | 65 | 213 | 9.0 | 16.0 | 0.00 | 0.23 | 0.23 | 67 | 1006.4 |
| 20260509192934 | 65 | 212 | 11.0 | 15.0 | 0.00 | 0.23 | 0.23 | 67 | 1006.4 |
| 20260509192701 | 64 | 230 | 9.0 | 15.0 | 0.00 | 0.23 | 0.23 | 65 | 1006.4 |
| 20260509191934 | 64 | 268 | 7.0 | 14.0 | 0.00 | 0.23 | 0.23 | 65 | 1006.3 |
| 20260509191434 | 64 | 235 | 9.0 | 19.0 | 0.00 | 0.23 | 0.23 | 66 | 1006.5 |
| 20260509190932 | 64 | 250 | 13.0 | 19.0 | 0.00 | 0.23 | 0.23 | 66 | 1006.6 |
| 20260509190433 | 65 | 289 | 9.0 | 12.0 | 0.00 | 0.23 | 0.23 | 68 | 1006.5 |
| 20260509190158 | 64 | 272 | 6.0 | 17.0 | 0.00 | 0.23 | 0.23 | 67 | 1006.5 |
| 20260509185434 | 64 | 220 | 11.0 | 17.0 | 0.00 | 0.23 | 0.23 | 66 | 1006.6 |
| 20260509184933 | 64 | 247 | 9.0 | 16.0 | 0.00 | 0.23 | 0.23 | 67 | 1006.5 |
| 20260509184433 | 64 | 234 | 9.0 | 15.0 | 0.00 | 0.23 | 0.23 | 69 | 1006.7 |
| 20260509183934 | 63 | 226 | 7.0 | 18.0 | 0.00 | 0.23 | 0.23 | 70 | 1006.7 |
| 20260509183433 | 63 | 212 | 11.0 | 18.0 | 0.00 | 0.23 | 0.23 | 71 | 1006.7 |
| 20260509182935 | 64 | 206 | 10.0 | 15.0 | 0.00 | 0.23 | 0.23 | 72 | 1006.8 |
| 20260509182434 | 63 | 185 | 10.0 | 14.0 | 0.00 | 0.23 | 0.23 | 72 | 1006.8 |
| 20260509181933 | 63 | 202 | 8.0 | 15.0 | 0.00 | 0.23 | 0.23 | 73 | 1006.8 |
| 20260509181655 | 62 | 243 | 6.0 | 15.0 | 0.00 | 0.23 | 0.23 | 74 | 1006.9 |
| 20260509180933 | 61 | 199 | 9.0 | 15.0 | 0.00 | 0.23 | 0.23 | 72 | 1006.8 |
| 20260509180649 | 62 | 247 | 7.0 | 10.0 | 0.00 | 0.23 | 0.23 | 72 | 1006.9 |
| 20260509175933 | 61 | 279 | 6.0 | 15.0 | 0.00 | 0.23 | 0.23 | 74 | 1006.9 |
| 20260509175433 | 61 | 237 | 7.0 | 15.0 | 0.00 | 0.23 | 0.23 | 73 | 1006.9 |
| 20260509174932 | 61 | 219 | 9.0 | 15.0 | 0.00 | 0.23 | 0.23 | 74 | 1006.9 |
| 20260509174432 | 60 | 223 | 8.0 | 14.0 | 0.00 | 0.23 | 0.23 | 73 | 1007.0 |
| 20260509173932 | 61 | 244 | 9.0 | 16.0 | 0.00 | 0.23 | 0.23 | 73 | 1006.9 |
| 20260509173654 | 60 | 252 | 11.0 | 16.0 | 0.00 | 0.23 | 0.23 | 74 | 1007.0 |
| 20260509173201 | 60 | 261 | 8.0 | 14.0 | 0.00 | 0.23 | 0.23 | 76 | 1006.9 |
| 20260509172654 | 60 | 219 | 11.0 | 18.0 | 0.00 | 0.23 | 0.23 | 76 | 1006.9 |
| 20260509171932 | 60 | 241 | 11.0 | 18.0 | 0.00 | 0.23 | 0.23 | 75 | 1006.9 |
| 20260509171432 | 60 | 248 | 12.0 | 17.0 | 0.00 | 0.23 | 0.23 | 76 | 1006.9 |
| 20260509170932 | 60 | 231 | 6.0 | 18.0 | 0.00 | 0.23 | 0.23 | 78 | 1007.0 |
| 20260509170432 | 59 | 241 | 12.0 | 18.0 | 0.00 | 0.23 | 0.23 | 77 | 1007.0 |
| 20260509165932 | 59 | 221 | 7.0 | 16.0 | 0.00 | 0.23 | 0.23 | 81 | 1006.8 |
| 20260509165432 | 58 | 221 | 12.0 | 16.0 | 0.01 | 0.23 | 0.23 | 80 | 1006.9 |
| 20260509164931 | 58 | 255 | 5.0 | 15.0 | 0.01 | 0.23 | 0.23 | 82 | 1006.9 |
| 20260509164431 | 58 | 226 | 10.0 | 15.0 | 0.01 | 0.23 | 0.23 | 82 | 1006.9 |
| 20260509164153 | 58 | 247 | 6.0 | 17.0 | 0.01 | 0.23 | 0.23 | 84 | 1006.9 |
| 20260509163431 | 58 | 233 | 9.0 | 17.0 | 0.01 | 0.23 | 0.23 | 86 | 1006.8 |
| 20260509162432 | 57 | 238 | 9.0 | 16.0 | 0.01 | 0.23 | 0.23 | 88 | 1006.7 |
| 20260509161931 | 57 | 202 | 7.0 | 14.0 | 0.01 | 0.23 | 0.23 | 89 | 1006.8 |
| 20260509161431 | 56 | 216 | 10.0 | 14.0 | 0.01 | 0.23 | 0.23 | 91 | 1006.7 |
| 20260509160929 | 56 | 203 | 9.0 | 14.0 | 0.01 | 0.23 | 0.23 | 92 | 1006.7 |
| 20260509160430 | 55 | 244 | 10.0 | 13.0 | 0.01 | 0.23 | 0.23 | 92 | 1006.8 |
| 20260509155930 | 54 | 210 | 8.0 | 13.0 | 0.01 | 0.23 | 0.23 | 93 | 1006.7 |
| 20260509155430 | 54 | 209 | 7.0 | 13.0 | 0.00 | 0.22 | 0.22 | 92 | 1006.8 |
| 20260509154931 | 53 | 210 | 8.0 | 13.0 | 0.00 | 0.22 | 0.22 | 92 | 1006.7 |
| 20260509154430 | 53 | 230 | 7.0 | 13.0 | 0.00 | 0.22 | 0.22 | 93 | 1006.6 |
| 20260509153931 | 53 | 207 | 6.0 | 11.0 | 0.00 | 0.22 | 0.22 | 93 | 1006.6 |
| 20260509153430 | 53 | 227 | 7.0 | 10.0 | 0.00 | 0.22 | 0.22 | 93 | 1006.5 |
| 20260509152930 | 53 | 212 | 5.0 | 10.0 | 0.00 | 0.22 | 0.22 | 93 | 1006.3 |
| 20260509152428 | 53 | 162 | 6.0 | 9.0 | 0.00 | 0.22 | 0.22 | 93 | 1006.3 |
| 20260509151928 | 53 | 209 | 6.0 | 10.0 | 0.00 | 0.22 | 0.22 | 92 | 1006.4 |
| 20260509151428 | 53 | 192 | 5.0 | 10.0 | 0.00 | 0.22 | 0.22 | 93 | 1006.6 |
| 20260509150930 | 53 | 203 | 6.0 | 10.0 | 0.00 | 0.22 | 0.22 | 93 | 1006.6 |
| 20260509150431 | 53 | 173 | 6.0 | 10.0 | 0.00 | 0.22 | 0.22 | 93 | 1006.6 |
| 20260509145929 | 53 | 213 | 6.0 | 10.0 | 0.00 | 0.22 | 0.22 | 94 | 1006.6 |
| 20260509145429 | 53 | 210 | 6.0 | 11.0 | 0.00 | 0.22 | 0.22 | 94 | 1006.5 |
| 20260509144930 | 53 | 213 | 6.0 | 11.0 | 0.00 | 0.22 | 0.22 | 94 | 1006.5 |
| 20260509144654 | 53 | 206 | 7.0 | 12.0 | 0.00 | 0.22 | 0.22 | 95 | 1006.5 |
| 20260509143930 | 52 | 190 | 7.0 | 12.0 | 0.01 | 0.22 | 0.22 | 95 | 1006.5 |
| 20260509143429 | 52 | 182 | 7.0 | 12.0 | 0.01 | 0.22 | 0.22 | 95 | 1006.5 |
| 20260509142929 | 52 | 212 | 7.0 | 12.0 | 0.01 | 0.22 | 0.22 | 95 | 1006.6 |
| 20260509142429 | 52 | 200 | 8.0 | 13.0 | 0.01 | 0.22 | 0.22 | 95 | 1006.4 |
| 20260509141930 | 52 | 190 | 6.0 | 13.0 | 0.01 | 0.22 | 0.22 | 95 | 1006.5 |
| 20260509141429 | 52 | 210 | 7.0 | 11.0 | 0.01 | 0.22 | 0.22 | 95 | 1006.6 |
| 20260509140429 | 51 | 192 | 5.0 | 9.0 | 0.02 | 0.22 | 0.22 | 95 | 1006.5 |
| 20260509135928 | 51 | 199 | 6.0 | 9.0 | 0.02 | 0.22 | 0.22 | 95 | 1006.6 |
| 20260509135428 | 51 | 193 | 5.0 | 9.0 | 0.02 | 0.22 | 0.22 | 95 | 1006.7 |
| 20260509134929 | 51 | 176 | 5.0 | 10.0 | 0.02 | 0.22 | 0.22 | 95 | 1006.7 |
| 20260509134428 | 51 | 206 | 6.0 | 10.0 | 0.02 | 0.22 | 0.22 | 95 | 1006.7 |
| 20260509134147 | 51 | 214 | 6.0 | 10.0 | 0.02 | 0.21 | 0.21 | 95 | 1006.8 |
| 20260509133427 | 51 | 206 | 6.0 | 10.0 | 0.02 | 0.21 | 0.21 | 95 | 1006.8 |
| 20260509132928 | 51 | 195 | 5.0 | 10.0 | 0.03 | 0.21 | 0.21 | 95 | 1006.9 |
| 20260509132428 | 51 | 231 | 5.0 | 11.0 | 0.03 | 0.21 | 0.21 | 95 | 1007.1 |
| 20260509131928 | 51 | 183 | 7.0 | 11.0 | 0.03 | 0.21 | 0.21 | 95 | 1007.2 |
| 20260509131428 | 51 | 206 | 7.0 | 11.0 | 0.04 | 0.21 | 0.21 | 95 | 1007.3 |
| 20260509130927 | 51 | 210 | 6.0 | 7.0 | 0.04 | 0.21 | 0.21 | 95 | 1007.3 |
| 20260509130428 | 51 | 217 | 6.0 | 10.0 | 0.04 | 0.20 | 0.20 | 94 | 1007.2 |
| 20260509125929 | 51 | 230 | 6.0 | 10.0 | 0.05 | 0.20 | 0.20 | 94 | 1007.2 |
| 20260509125654 | 51 | 217 | 6.0 | 10.0 | 0.06 | 0.20 | 0.20 | 94 | 1007.3 |
| 20260509124928 | 51 | 223 | 7.0 | 11.0 | 0.06 | 0.20 | 0.20 | 94 | 1007.2 |
| 20260509124429 | 51 | 216 | 4.0 | 11.0 | 0.07 | 0.20 | 0.20 | 94 | 1007.2 |
| 20260509123927 | 51 | 199 | 6.0 | 11.0 | 0.06 | 0.19 | 0.19 | 94 | 1007.2 |
| 20260509123655 | 51 | 234 | 6.0 | 10.0 | 0.07 | 0.19 | 0.19 | 94 | 1007.3 |
| 20260509122927 | 51 | 220 | 6.0 | 11.0 | 0.06 | 0.18 | 0.18 | 94 | 1007.3 |
| 20260509122427 | 51 | 234 | 6.0 | 11.0 | 0.07 | 0.18 | 0.18 | 94 | 1007.3 |
| 20260509121927 | 51 | 224 | 6.0 | 11.0 | 0.07 | 0.18 | 0.18 | 94 | 1007.1 |
| 20260509121427 | 51 | 196 | 6.0 | 11.0 | 0.06 | 0.17 | 0.17 | 94 | 1007.2 |
| 20260509120926 | 51 | 196 | 8.0 | 11.0 | 0.06 | 0.17 | 0.17 | 94 | 1007.2 |
| 20260509120426 | 51 | 228 | 6.0 | 15.0 | 0.05 | 0.16 | 0.16 | 94 | 1007.3 |
| 20260509115927 | 51 | 203 | 6.0 | 15.0 | 0.05 | 0.15 | 0.15 | 94 | 1007.3 |
| 20260509115426 | 51 | 226 | 6.0 | 12.0 | 0.04 | 0.14 | 0.14 | 94 | 1007.4 |
| 20260509114927 | 51 | 212 | 8.0 | 12.0 | 0.04 | 0.14 | 0.14 | 94 | 1007.4 |
| 20260509114426 | 51 | 224 | 7.0 | 11.0 | 0.03 | 0.13 | 0.13 | 94 | 1007.3 |
| 20260509113926 | 51 | 210 | 6.0 | 11.0 | 0.04 | 0.13 | 0.13 | 94 | 1007.2 |
| 20260509113647 | 51 | 226 | 6.0 | 11.0 | 0.03 | 0.12 | 0.12 | 94 | 1007.3 |
| 20260509112926 | 51 | 213 | 6.0 | 11.0 | 0.03 | 0.12 | 0.12 | 94 | 1007.2 |
| 20260509112426 | 51 | 193 | 6.0 | 11.0 | 0.02 | 0.11 | 0.11 | 93 | 1007.3 |
| 20260509111926 | 51 | 203 | 6.0 | 9.0 | 0.02 | 0.11 | 0.11 | 93 | 1007.2 |
| 20260509111425 | 51 | 240 | 5.0 | 7.0 | 0.03 | 0.11 | 0.11 | 93 | 1007.1 |
| 20260509110927 | 50 | 212 | 5.0 | 9.0 | 0.03 | 0.11 | 0.11 | 93 | 1007.0 |
| 20260509110426 | 50 | 212 | 4.0 | 9.0 | 0.03 | 0.11 | 0.11 | 93 | 1007.0 |
| 20260509105925 | 50 | 212 | 5.0 | 9.0 | 0.02 | 0.10 | 0.10 | 93 | 1007.0 |
| 20260509105425 | 51 | 212 | 6.0 | 9.0 | 0.02 | 0.10 | 0.10 | 93 | 1006.9 |